Location: Passau
(48.5830°N, 13.4830°E)
Time: 13:21:02
(UTC+02:00)

Courier 1B - Pass Details

Date: 04 August 2021
Orbit: 963 x 1209 km, 28.3° (Epoch: 21 September)

Event Time Altitude Azimuth Distance (km) Brightness Sun altitude
Rises 21:47:58 0° 242° (WSW) 4,106 11.1 -10.3°
Reaches altitude 10° 21:52:31 10° 219° (SW) 3,128 10.1 -10.8°
Maximum altitude 21:56:10 14° 191° (S) 2,809 9.6 -11.3°
Drops below altitude 10° 21:59:48 10° 162° (SSE) 3,078 9.6 -11.7°
Enters shadow 21:59:51 10° 162° (SSE) 3,086 9.6 -11.7°
